Time,TemperatureF,DewpointF,PressureIn,WindDirection,WindDirectionDegrees,WindSpeedMPH,WindSpeedGustMPH,Humidity,HourlyPrecipIn,Conditions,Clouds,dailyrainin,SoftwareType,DateUTC
2013-02-14 00:00:00,27.5,20.0,30.07,NW,316,18.8,25.5,73,0.00,,OVC100,0.00,VWS V14.01,2013-02-14 07:00:00,
2013-02-14 00:05:00,27.5,20.0,30.07,NW,317,12.8,15.0,73,0.00,,OVC100,0.00,VWS V14.01,2013-02-14 07:05:00,
2013-02-14 00:10:00,28.0,18.5,30.07,NW,313,15.0,19.7,67,0.00,,OVC100,0.00,VWS V14.01,2013-02-14 07:10:00,
2013-02-14 00:15:00,27.9,18.0,30.07,NW,310,14.5,19.7,66,0.00,,OVC100,0.00,VWS V14.01,2013-02-14 07:15:00,
2013-02-14 00:20:00,28.0,17.1,30.07,NW,312,12.8,19.7,63,0.00,,OVC100,0.00,VWS V14.01,2013-02-14 07:20:00,
2013-02-14 00:25:00,28.4,15.5,30.07,WNW,298,17.4,19.7,58,0.00,,OVC100,0.00,VWS V14.01,2013-02-14 07:25:00,
2013-02-14 00:30:00,28.6,14.9,30.07,NW,308,13.6,19.7,56,0.00,,OVC100,0.00,VWS V14.01,2013-02-14 07:30:00,
2013-02-14 00:35:00,28.6,14.5,30.07,NW,308,15.0,17.0,55,0.00,,OVC100,0.00,VWS V14.01,2013-02-14 07:35:00,
2013-02-14 00:40:00,26.4,18.0,30.07,NNE,19,13.2,17.0,70,0.00,,OVC100,0.00,VWS V14.01,2013-02-14 07:40:00,
2013-02-14 00:45:00,25.2,20.5,30.07,NNW,348,8.3,17.0,82,0.00,,OVC100,0.00,VWS V14.01,2013-02-14 07:45:00,
2013-02-14 00:50:00,24.8,22.0,30.07,North,353,5.4,17.0,89,0.00,,OVC100,0.00,VWS V14.01,2013-02-14 07:50:00,
2013-02-14 00:55:00,24.6,22.4,30.07,NNE,14,6.3,17.0,91,0.00,,OVC100,0.00,VWS V14.01,2013-02-14 07:55:00,
2013-02-14 01:00:00,24.6,22.9,30.07,NNW,330,8.3,17.0,93,0.00,,OVC100,0.00,VWS V14.01,2013-02-14 08:00:00,
2013-02-14 01:05:00,24.4,23.0,30.07,NNW,335,7.6,12.3,94,0.00,,OVC100,0.00,VWS V14.01,2013-02-14 08:05:00,
2013-02-14 01:10:00,24.4,23.0,30.07,NNW,334,8.3,12.3,94,0.00,,OVC100,0.00,VWS V14.01,2013-02-14 08:10:00,
2013-02-14 01:15:00,24.4,23.0,30.10,North,357,10.5,12.3,94,0.00,,OVC100,0.00,VWS V14.01,2013-02-14 08:15:00,
2013-02-14 01:20:00,23.0,21.3,30.10,NW,326,15.4,22.4,93,0.00,,OVC100,0.00,VWS V14.01,2013-02-14 08:20:00,
2013-02-14 01:25:00,21.4,18.9,30.10,NW,318,13.2,25.5,90,0.00,,OVC100,0.00,VWS V14.01,2013-02-14 08:25:00,
2013-02-14 01:30:00,21.2,19.0,30.10,NNW,327,17.4,25.5,91,0.00,,OVC100,0.00,VWS V14.01,2013-02-14 08:30:00,
2013-02-14 01:35:00,20.7,18.5,30.10,NNW,336,17.0,25.1,91,0.00,,OVC100,0.00,VWS V14.01,2013-02-14 08:35:00,
2013-02-14 01:40:00,20.7,18.7,30.10,NNW,334,12.8,25.1,92,0.00,,OVC100,0.00,VWS V14.01,2013-02-14 08:40:00,
2013-02-14 01:44:00,20.7,18.7,30.10,North,0,10.5,25.1,92,0.00,,OVC100,0.00,VWS V14.01,2013-02-14 08:44:00,
2013-02-14 01:49:00,20.7,18.7,30.10,NNW,328,10.1,25.1,92,0.00,,OVC100,0.00,VWS V14.01,2013-02-14 08:49:00,
2013-02-14 01:54:00,20.7,18.7,30.10,North,353,15.0,25.1,92,0.00,,OVC100,0.00,VWS V14.01,2013-02-14 08:54:00,
2013-02-14 01:59:00,20.3,18.1,30.10,NW,306,11.0,25.1,91,0.00,,OVC100,0.00,VWS V14.01,2013-02-14 08:59:00,
2013-02-14 02:04:00,20.3,18.1,30.10,NW,325,11.0,16.3,91,0.00,,OVC060,0.00,VWS V14.01,2013-02-14 09:04:00,
2013-02-14 02:09:00,20.1,17.9,30.10,NW,322,15.0,17.4,91,0.00,,OVC060,0.00,VWS V14.01,2013-02-14 09:09:00,
2013-02-14 02:14:00,19.9,17.2,30.10,NW,322,10.5,20.1,89,0.00,,OVC060,0.00,VWS V14.01,2013-02-14 09:14:00,
2013-02-14 02:19:00,19.4,17.0,30.10,NNW,336,12.3,20.1,90,0.00,,OVC060,0.00,VWS V14.01,2013-02-14 09:19:00,
2013-02-14 02:24:00,19.2,16.8,30.10,NNW,328,13.2,20.1,90,0.00,,OVC060,0.00,VWS V14.01,2013-02-14 09:24:00,
2013-02-14 02:29:00,19.2,17.0,30.10,NNW,342,11.4,20.1,91,0.00,,OVC060,0.00,VWS V14.01,2013-02-14 09:29:00,
2013-02-14 02:34:00,19.4,17.2,30.13,NNW,341,13.2,16.8,91,0.00,,OVC060,0.00,VWS V14.01,2013-02-14 09:34:00,
2013-02-14 02:39:00,19.4,17.2,30.13,NNW,334,13.2,19.7,91,0.00,,OVC060,0.00,VWS V14.01,2013-02-14 09:39:00,
2013-02-14 02:44:00,19.2,17.0,30.13,NW,318,15.0,20.6,91,0.00,,OVC060,0.00,VWS V14.01,2013-02-14 09:44:00,
2013-02-14 02:49:00,19.0,16.9,30.13,NNW,329,10.5,20.6,91,0.00,,OVC060,0.00,VWS V14.01,2013-02-14 09:49:00,
2013-02-14 02:54:00,19.0,16.9,30.13,NW,307,15.0,20.6,91,0.00,,OVC060,0.00,VWS V14.01,2013-02-14 09:54:00,
2013-02-14 02:59:00,18.9,16.7,30.13,NNW,338,12.8,24.2,91,0.00,,OVC060,0.00,VWS V14.01,2013-02-14 09:59:00,
2013-02-14 03:04:00,18.7,16.5,30.13,NW,319,10.5,13.2,91,0.00,,BKN047,0.00,VWS V14.01,2013-02-14 10:04:00,
2013-02-14 03:09:00,18.7,16.5,30.13,NW,317,13.2,13.2,91,0.00,,BKN047,0.00,VWS V14.01,2013-02-14 10:09:00,
2013-02-14 03:14:00,18.7,16.5,30.13,NW,319,15.4,15.4,91,0.00,,BKN047,0.00,VWS V14.01,2013-02-14 10:14:00,
2013-02-14 03:19:00,19.0,16.9,30.13,NW,321,13.6,16.3,91,0.00,,BKN047,0.00,VWS V14.01,2013-02-14 10:19:00,
2013-02-14 03:24:00,18.5,16.3,30.13,NW,306,16.8,19.7,91,0.00,,BKN047,0.00,VWS V14.01,2013-02-14 10:24:00,
2013-02-14 03:29:00,18.7,16.2,30.13,NW,313,13.2,19.7,90,0.00,,BKN047,0.00,VWS V14.01,2013-02-14 10:29:00,
2013-02-14 03:34:00,18.5,16.1,30.13,NW,315,12.8,19.7,90,0.00,,BKN047,0.00,VWS V14.01,2013-02-14 10:34:00,
2013-02-14 03:39:00,18.5,16.3,30.13,NW,316,15.0,19.7,91,0.00,,BKN047,0.00,VWS V14.01,2013-02-14 10:39:00,
2013-02-14 03:44:00,18.7,16.5,30.13,NW,314,10.5,19.7,91,0.00,,BKN047,0.00,VWS V14.01,2013-02-14 10:44:00,
2013-02-14 03:49:00,18.7,16.5,30.16,NW,318,13.2,20.6,91,0.00,,BKN047,0.00,VWS V14.01,2013-02-14 10:49:00,
2013-02-14 03:54:00,18.3,15.9,30.16,NNW,335,21.0,21.0,90,0.00,,BKN047,0.00,VWS V14.01,2013-02-14 10:54:00,
2013-02-14 03:59:00,18.3,15.9,30.16,WNW,299,9.6,21.0,90,0.00,,BKN047,0.00,VWS V14.01,2013-02-14 10:59:00,
2013-02-14 04:04:00,18.3,16.1,30.16,NW,311,8.7,13.6,91,0.00,,BKN025,0.00,VWS V14.01,2013-02-14 11:04:00,
2013-02-14 04:09:00,18.5,16.3,30.16,NW,320,8.3,17.4,91,0.00,,BKN025,0.00,VWS V14.01,2013-02-14 11:09:00,
2013-02-14 04:14:00,18.5,16.3,30.16,NW,324,8.1,17.4,91,0.00,,BKN025,0.00,VWS V14.01,2013-02-14 11:14:00,
2013-02-14 04:19:00,18.7,16.5,30.16,NW,308,6.3,17.4,91,0.00,,BKN025,0.00,VWS V14.01,2013-02-14 11:19:00,
2013-02-14 04:24:00,18.7,16.5,30.16,NW,317,7.6,17.4,91,0.00,,BKN025,0.00,VWS V14.01,2013-02-14 11:24:00,
2013-02-14 04:29:00,18.7,16.5,30.16,WNW,292,10.1,17.4,91,0.00,,BKN025,0.00,VWS V14.01,2013-02-14 11:29:00,
2013-02-14 04:34:00,18.7,16.2,30.16,NW,305,12.3,15.4,90,0.00,,BKN025,0.00,VWS V14.01,2013-02-14 11:34:00,
2013-02-14 04:39:00,17.8,15.4,30.16,NW,318,11.9,15.4,90,0.00,,BKN025,0.00,VWS V14.01,2013-02-14 11:39:00,
2013-02-14 04:44:00,18.0,15.5,30.16,NW,320,5.8,15.4,90,0.00,,BKN025,0.00,VWS V14.01,2013-02-14 11:44:00,
2013-02-14 04:49:00,18.0,15.5,30.19,NNW,328,7.6,15.4,90,0.00,,BKN025,0.00,VWS V14.01,2013-02-14 11:49:00,
2013-02-14 04:54:00,18.5,16.1,30.19,NW,304,12.3,15.9,90,0.00,,BKN025,0.00,VWS V14.01,2013-02-14 11:54:00,
2013-02-14 04:59:00,18.5,16.1,30.19,WNW,303,13.2,15.9,90,0.00,,BKN025,0.00,VWS V14.01,2013-02-14 11:59:00,
2013-02-14 05:04:00,18.3,15.9,30.16,NNW,333,6.3,8.7,90,0.00,,BKN025,0.00,VWS V14.01,2013-02-14 12:04:00,
2013-02-14 05:09:00,17.6,15.2,30.16,NNW,329,6.3,11.0,90,0.00,,BKN025,0.00,VWS V14.01,2013-02-14 12:09:00,
2013-02-14 05:14:00,17.4,15.0,30.16,NW,323,11.0,11.0,90,0.00,,BKN025,0.00,VWS V14.01,2013-02-14 12:14:00,
2013-02-14 05:19:00,17.4,14.7,30.19,NW,317,8.3,11.0,89,0.00,,BKN025,0.00,VWS V14.01,2013-02-14 12:19:00,
2013-02-14 05:24:00,17.6,15.2,30.19,NW,322,8.1,11.0,90,0.00,,BKN025,0.00,VWS V14.01,2013-02-14 12:24:00,
2013-02-14 05:29:00,17.4,14.7,30.19,NNW,327,12.8,15.4,89,0.00,,BKN025,0.00,VWS V14.01,2013-02-14 12:29:00,
2013-02-14 05:34:00,17.1,14.4,30.19,NNW,338,11.0,12.3,89,0.00,,BKN025,0.00,VWS V14.01,2013-02-14 12:34:00,
2013-02-14 05:39:00,17.1,14.4,30.19,NW,322,8.7,13.2,89,0.00,,BKN025,0.00,VWS V14.01,2013-02-14 12:39:00,
2013-02-14 05:44:00,17.1,14.4,30.19,NW,322,7.6,13.2,89,0.00,,BKN025,0.00,VWS V14.01,2013-02-14 12:44:00,
2013-02-14 05:49:00,17.1,14.4,30.19,NW,315,8.7,13.2,89,0.00,,BKN025,0.00,VWS V14.01,2013-02-14 12:49:00,
2013-02-14 05:54:00,17.2,14.6,30.19,WNW,300,11.0,13.2,89,0.00,,BKN025,0.00,VWS V14.01,2013-02-14 12:54:00,
2013-02-14 05:59:00,17.4,14.7,30.19,NW,317,11.4,13.2,89,0.00,,BKN025,0.00,VWS V14.01,2013-02-14 12:59:00,
2013-02-14 06:04:00,18.0,15.3,30.19,NW,323,12.8,13.2,89,0.00,,OVC017,0.00,VWS V14.01,2013-02-14 13:04:00,
2013-02-14 06:09:00,17.8,15.1,30.19,NW,320,10.5,13.2,89,0.00,,OVC017,0.00,VWS V14.01,2013-02-14 13:09:00,
2013-02-14 06:14:00,18.0,15.0,30.19,NW,309,13.2,15.4,88,0.00,,OVC017,0.00,VWS V14.01,2013-02-14 13:14:00,
2013-02-14 06:19:00,18.0,14.8,30.19,NW,315,15.9,19.7,87,0.00,,OVC017,0.00,VWS V14.01,2013-02-14 13:19:00,
2013-02-14 06:24:00,17.8,14.6,30.19,NW,311,15.4,19.7,87,0.00,,OVC017,0.00,VWS V14.01,2013-02-14 13:24:00,
2013-02-14 06:29:00,18.0,14.2,30.19,NW,323,15.0,19.7,85,0.00,,OVC017,0.00,VWS V14.01,2013-02-14 13:29:00,
2013-02-14 06:34:00,17.8,14.0,30.19,NW,325,13.2,20.1,85,0.00,,OVC017,0.00,VWS V14.01,2013-02-14 13:34:00,
2013-02-14 06:39:00,17.8,14.0,30.19,NW,325,15.0,20.1,85,0.00,,OVC017,0.00,VWS V14.01,2013-02-14 13:39:00,
2013-02-14 06:44:00,17.6,13.9,30.19,NW,318,13.2,20.1,85,0.00,,OVC017,0.00,VWS V14.01,2013-02-14 13:44:00,
2013-02-14 06:49:00,17.4,13.7,30.19,NW,304,13.6,20.1,85,0.00,,OVC017,0.00,VWS V14.01,2013-02-14 13:49:00,
2013-02-14 06:54:00,17.4,13.7,30.19,NW,309,15.4,20.1,85,0.00,,OVC017,0.00,VWS V14.01,2013-02-14 13:54:00,
2013-02-14 06:59:00,17.1,13.3,30.19,NNW,331,8.3,20.1,85,0.00,,OVC017,0.00,VWS V14.01,2013-02-14 13:59:00,
2013-02-14 07:04:00,17.1,13.1,30.22,NW,311,13.2,15.0,84,0.00,,OVC055,0.00,VWS V14.01,2013-02-14 14:04:00,
2013-02-14 07:09:00,16.9,13.2,30.22,NNW,331,11.0,17.4,85,0.00,,OVC055,0.00,VWS V14.01,2013-02-14 14:09:00,
2013-02-14 07:14:00,16.7,13.2,30.22,NNW,341,10.1,17.4,86,0.00,,OVC055,0.00,VWS V14.01,2013-02-14 14:14:00,
2013-02-14 07:19:00,16.7,13.2,30.22,NNW,333,11.0,17.4,86,0.00,,OVC055,0.00,VWS V14.01,2013-02-14 14:19:00,
2013-02-14 07:24:00,16.7,13.2,30.22,NW,326,11.0,17.4,86,0.00,,OVC055,0.00,VWS V14.01,2013-02-14 14:24:00,
2013-02-14 07:29:00,16.9,13.4,30.22,NW,308,8.3,17.4,86,0.00,,OVC055,0.00,VWS V14.01,2013-02-14 14:29:00,
2013-02-14 07:34:00,17.4,13.7,30.22,WNW,299,10.1,10.5,85,0.00,,OVC055,0.00,VWS V14.01,2013-02-14 14:34:00,
2013-02-14 07:39:00,18.0,13.4,30.22,NW,306,8.7,11.0,82,0.00,,OVC055,0.00,VWS V14.01,2013-02-14 14:39:00,
2013-02-14 07:44:00,18.0,12.0,30.22,NNW,330,6.3,12.8,77,0.00,,OVC055,0.00,VWS V14.01,2013-02-14 14:44:00,
2013-02-14 07:49:00,17.6,11.3,30.22,NNW,331,8.1,12.8,76,0.00,,OVC055,0.00,VWS V14.01,2013-02-14 14:49:00,
2013-02-14 07:54:00,17.4,12.0,30.22,NNW,330,10.5,12.8,79,0.00,,OVC055,0.00,VWS V14.01,2013-02-14 14:54:00,
2013-02-14 07:59:00,16.9,12.1,30.22,NNW,327,13.2,15.0,81,0.00,,OVC055,0.00,VWS V14.01,2013-02-14 14:59:00,
2013-02-14 08:04:00,16.7,12.4,30.22,NNW,332,11.0,14.5,83,0.00,,OVC033,0.00,VWS V14.01,2013-02-14 15:04:00,
2013-02-14 08:09:00,16.9,12.6,30.22,NW,310,10.1,14.5,83,0.00,,OVC033,0.00,VWS V14.01,2013-02-14 15:09:00,
2013-02-14 08:14:00,16.9,12.9,30.22,NW,319,10.1,14.5,84,0.00,,OVC033,0.00,VWS V14.01,2013-02-14 15:14:00,
2013-02-14 08:19:00,16.9,12.6,30.25,NW,316,14.1,15.4,83,0.00,,OVC033,0.00,VWS V14.01,2013-02-14 15:19:00,
2013-02-14 08:24:00,16.5,12.3,30.25,NW,318,15.0,17.9,83,0.00,,OVC033,0.00,VWS V14.01,2013-02-14 15:24:00,
2013-02-14 08:29:00,16.5,12.3,30.25,NW,313,14.1,17.9,83,0.00,,OVC033,0.00,VWS V14.01,2013-02-14 15:29:00,
2013-02-14 08:34:00,16.7,12.4,30.25,NNW,330,11.0,15.4,83,0.00,,OVC033,0.00,VWS V14.01,2013-02-14 15:34:00,
2013-02-14 08:39:00,16.9,12.4,30.25,NW,314,8.7,15.4,82,0.00,,OVC033,0.00,VWS V14.01,2013-02-14 15:39:00,
2013-02-14 08:44:00,17.1,12.2,30.25,NNW,345,8.7,15.4,81,0.00,,OVC033,0.00,VWS V14.01,2013-02-14 15:44:00,
2013-02-14 08:49:00,17.6,12.5,30.25,NNW,338,6.3,15.4,80,0.00,,OVC033,0.00,VWS V14.01,2013-02-14 15:49:00,
2013-02-14 08:54:00,17.6,12.2,30.25,NNW,346,6.3,15.4,79,0.00,,OVC033,0.00,VWS V14.01,2013-02-14 15:54:00,
2013-02-14 08:59:00,17.2,11.9,30.25,NNW,330,8.7,15.4,79,0.00,,OVC033,0.00,VWS V14.01,2013-02-14 15:59:00,
2013-02-14 09:04:00,17.4,12.3,30.25,NNW,330,7.2,11.0,80,0.00,,OVC033,0.00,VWS V14.01,2013-02-14 16:04:00,
2013-02-14 09:09:00,17.8,12.1,30.25,NNW,328,6.3,11.0,78,0.00,,OVC036,0.00,VWS V14.01,2013-02-14 16:09:00,
2013-02-14 09:14:00,18.3,12.6,30.25,NNW,333,5.4,11.0,78,0.00,,OVC036,0.00,VWS V14.01,2013-02-14 16:14:00,
2013-02-14 09:19:00,18.9,13.1,30.25,NNW,332,4.0,11.0,78,0.00,,OVC036,0.00,VWS V14.01,2013-02-14 16:19:00,
2013-02-14 09:24:00,18.7,12.7,30.25,North,353,8.7,11.0,77,0.00,,OVC036,0.00,VWS V14.01,2013-02-14 16:24:00,
2013-02-14 09:29:00,17.8,12.1,30.25,NW,326,14.5,14.5,78,0.00,,OVC036,0.00,VWS V14.01,2013-02-14 16:29:00,
2013-02-14 09:34:00,17.6,11.3,30.25,NW,323,8.3,11.0,76,0.00,,OVC036,0.00,VWS V14.01,2013-02-14 16:34:00,
2013-02-14 09:39:00,18.1,11.6,30.25,NNW,328,10.1,11.0,75,0.00,,OVC036,0.00,VWS V14.01,2013-02-14 16:39:00,
2013-02-14 09:44:00,18.5,11.6,30.25,North,0,5.4,11.0,74,0.00,,OVC036,0.00,VWS V14.01,2013-02-14 16:44:00,
2013-02-14 09:49:00,19.2,12.0,30.25,NNW,328,7.6,11.0,73,0.00,,OVC036,0.00,VWS V14.01,2013-02-14 16:49:00,
2013-02-14 09:54:00,19.6,11.7,30.25,NNW,328,10.5,11.0,71,0.00,,OVC036,0.00,VWS V14.01,2013-02-14 16:54:00,
2013-02-14 09:59:00,19.8,11.6,30.25,NW,310,11.0,11.0,70,0.00,,OVC036,0.00,VWS V14.01,2013-02-14 16:59:00,
2013-02-14 10:04:00,19.2,11.7,30.25,NNW,341,8.3,10.1,72,0.00,,OVC018,0.00,VWS V14.01,2013-02-14 17:04:00,
2013-02-14 10:09:00,19.4,12.5,30.25,NNW,337,7.6,10.1,74,0.00,,OVC018,0.00,VWS V14.01,2013-02-14 17:09:00,
2013-02-14 10:14:00,19.4,12.5,30.25,NNW,333,8.7,13.2,74,0.00,,OVC018,0.00,VWS V14.01,2013-02-14 17:14:00,
2013-02-14 10:19:00,19.9,11.8,30.25,NNW,333,8.1,13.2,70,0.00,,OVC018,0.00,VWS V14.01,2013-02-14 17:19:00,
2013-02-14 10:24:00,20.1,12.2,30.25,NW,313,8.7,13.2,71,0.00,,OVC018,0.00,VWS V14.01,2013-02-14 17:24:00,
2013-02-14 10:29:00,20.5,11.6,30.25,NW,325,8.3,13.2,68,0.00,,OVC018,0.00,VWS V14.01,2013-02-14 17:29:00,
2013-02-14 10:34:00,21.2,11.3,30.25,NW,311,8.7,11.0,65,0.00,,OVC018,0.00,VWS V14.01,2013-02-14 17:34:00,
2013-02-14 10:39:00,21.6,10.9,30.25,NNW,332,5.8,11.0,63,0.00,,OVC018,0.00,VWS V14.01,2013-02-14 17:39:00,
2013-02-14 10:44:00,20.7,10.4,30.25,NNW,337,8.7,11.0,64,0.00,,OVC018,0.00,VWS V14.01,2013-02-14 17:44:00,
2013-02-14 10:49:00,21.2,11.3,30.25,North,357,8.3,11.0,65,0.00,,OVC018,0.00,VWS V14.01,2013-02-14 17:49:00,
2013-02-14 10:54:00,20.5,10.9,30.25,NNW,330,8.3,11.0,66,0.00,,OVC018,0.00,VWS V14.01,2013-02-14 17:54:00,
2013-02-14 10:59:00,20.5,10.6,30.25,NNW,342,6.3,11.0,65,0.00,,OVC018,0.00,VWS V14.01,2013-02-14 17:59:00,
2013-02-14 11:04:00,20.8,10.6,30.25,NNW,331,8.7,10.5,64,0.00,,OVC020,0.00,VWS V14.01,2013-02-14 18:04:00,
2013-02-14 11:09:00,20.7,9.7,30.25,North,357,6.3,10.5,62,0.00,,OVC020,0.00,VWS V14.01,2013-02-14 18:09:00,
2013-02-14 11:14:00,21.4,10.4,30.25,NNW,330,6.3,10.5,62,0.00,,OVC020,0.00,VWS V14.01,2013-02-14 18:14:00,
2013-02-14 11:19:00,21.0,9.7,30.25,NNW,335,5.4,10.5,61,0.00,,OVC020,0.00,VWS V14.01,2013-02-14 18:19:00,
2013-02-14 11:24:00,21.2,9.9,30.25,NNW,345,7.6,11.0,61,0.00,,OVC020,0.00,VWS V14.01,2013-02-14 18:24:00,
2013-02-14 11:29:00,20.7,10.1,30.25,North,357,5.4,11.0,63,0.00,,OVC020,0.00,VWS V14.01,2013-02-14 18:29:00,
2013-02-14 11:34:00,20.7,10.1,30.25,NNW,348,6.3,8.1,63,0.00,,OVC020,0.00,VWS V14.01,2013-02-14 18:34:00,
2013-02-14 11:39:00,20.8,9.5,30.25,North,5,6.3,10.5,61,0.00,,OVC020,0.00,VWS V14.01,2013-02-14 18:39:00,
2013-02-14 11:44:00,20.7,10.4,30.25,North,6,6.3,10.5,64,0.00,,OVC020,0.00,VWS V14.01,2013-02-14 18:44:00,
2013-02-14 11:49:00,20.3,10.1,30.25,NNW,344,5.4,10.5,64,0.00,,OVC020,0.00,VWS V14.01,2013-02-14 18:49:00,
2013-02-14 11:54:00,21.0,10.4,30.25,North,0,5.4,10.5,63,0.00,,OVC020,0.00,VWS V14.01,2013-02-14 18:54:00,
2013-02-14 11:59:00,22.1,10.4,30.25,North,353,6.3,10.5,60,0.00,,OVC020,0.00,VWS V14.01,2013-02-14 18:59:00,
2013-02-14 12:04:00,21.9,9.0,30.25,NNE,17,6.3,7.6,57,0.00,,OVC020,0.00,VWS V14.01,2013-02-14 19:04:00,
2013-02-14 12:09:00,21.7,8.9,30.25,North,6,7.6,8.3,57,0.00,,OVC036,0.00,VWS V14.01,2013-02-14 19:09:00,
2013-02-14 12:14:00,22.8,10.3,30.25,NNE,14,5.4,8.3,58,0.00,,OVC036,0.00,VWS V14.01,2013-02-14 19:14:00,
2013-02-14 12:19:00,24.1,10.3,30.25,North,10,4.0,8.3,55,0.00,,OVC036,0.00,VWS V14.01,2013-02-14 19:19:00,
2013-02-14 12:24:00,23.9,8.9,30.25,North,11,3.1,8.3,52,0.00,,OVC036,0.00,VWS V14.01,2013-02-14 19:24:00,
2013-02-14 12:29:00,26.1,10.9,30.25,NE,44,4.0,8.3,52,0.00,,OVC036,0.00,VWS V14.01,2013-02-14 19:29:00,
2013-02-14 12:34:00,24.4,8.5,30.25,ENE,65,3.1,4.0,50,0.00,,OVC036,0.00,VWS V14.01,2013-02-14 19:34:00,
2013-02-14 12:39:00,24.1,9.0,30.25,ENE,65,2.7,4.5,52,0.00,,OVC036,0.00,VWS V14.01,2013-02-14 19:39:00,
2013-02-14 12:44:00,25.2,10.0,30.25,ENE,65,2.7,4.5,52,0.00,,OVC036,0.00,VWS V14.01,2013-02-14 19:44:00,
2013-02-14 12:49:00,28.9,13.1,30.25,ENE,64,3.1,4.5,51,0.00,,OVC036,0.00,VWS V14.01,2013-02-14 19:49:00,
2013-02-14 12:54:00,31.8,12.9,30.25,NE,35,0.0,4.5,45,0.00,,OVC036,0.00,VWS V14.01,2013-02-14 19:54:00,
2013-02-14 12:59:00,29.5,10.3,30.25,ENE,71,3.1,4.9,44,0.00,,OVC036,0.00,VWS V14.01,2013-02-14 19:59:00,
2013-02-14 13:04:00,27.5,9.4,30.22,East,90,2.7,3.1,46,0.00,,OVC043,0.00,VWS V14.01,2013-02-14 20:04:00,
2013-02-14 13:09:00,29.8,12.1,30.22,NNE,23,5.4,5.4,47,0.00,,OVC043,0.00,VWS V14.01,2013-02-14 20:09:00,
2013-02-14 13:14:00,30.0,11.3,30.22,North,5,3.6,5.4,45,0.00,,OVC043,0.00,VWS V14.01,2013-02-14 20:14:00,
2013-02-14 13:19:00,27.7,9.6,30.22,NNE,26,4.0,5.4,46,0.00,,OVC043,0.00,VWS V14.01,2013-02-14 20:19:00,
2013-02-14 13:24:00,28.2,9.6,30.22,North,6,3.1,5.4,45,0.00,,OVC043,0.00,VWS V14.01,2013-02-14 20:24:00,
2013-02-14 13:29:00,30.9,12.1,30.22,NNE,16,2.2,5.4,45,0.00,,OVC043,0.00,VWS V14.01,2013-02-14 20:29:00,
2013-02-14 13:34:00,28.8,9.1,30.22,ENE,67,3.6,3.6,43,0.00,,OVC043,0.00,VWS V14.01,2013-02-14 20:34:00,
2013-02-14 13:39:00,30.7,10.9,30.22,NE,44,0.0,4.0,43,0.00,,OVC043,0.00,VWS V14.01,2013-02-14 20:39:00,
2013-02-14 13:44:00,27.9,8.8,30.22,East,96,4.0,4.0,44,0.00,,OVC043,0.00,VWS V14.01,2013-02-14 20:44:00,
2013-02-14 13:49:00,25.9,8.4,30.22,SE,124,2.7,4.5,47,0.00,,OVC043,0.00,VWS V14.01,2013-02-14 20:49:00,
2013-02-14 13:54:00,26.1,9.1,30.22,ENE,78,2.7,5.4,48,0.00,,OVC043,0.00,VWS V14.01,2013-02-14 20:54:00,
2013-02-14 13:59:00,26.6,9.6,30.22,East,97,3.1,5.4,48,0.00,,OVC043,0.00,VWS V14.01,2013-02-14 20:59:00,
2013-02-14 14:04:00,26.2,9.2,30.22,East,89,3.1,3.6,48,0.00,,OVC043,0.00,VWS V14.01,2013-02-14 21:04:00,
2013-02-14 14:08:00,23.5,8.5,30.22,ESE,112,3.1,5.4,52,0.00,,OVC050,0.00,VWS V14.01,2013-02-14 21:08:00,
2013-02-14 14:13:00,22.6,8.9,30.22,ESE,113,3.6,5.8,55,0.00,,OVC050,0.00,VWS V14.01,2013-02-14 21:13:00,
2013-02-14 14:18:00,23.2,9.8,30.22,ESE,119,2.7,6.3,56,0.00,,OVC050,0.00,VWS V14.01,2013-02-14 21:18:00,
2013-02-14 14:23:00,22.5,9.5,30.22,East,101,4.9,6.3,57,0.00,,OVC050,0.00,VWS V14.01,2013-02-14 21:23:00,
2013-02-14 14:28:00,21.9,9.4,30.22,ESE,120,6.3,6.3,58,0.00,,OVC050,0.00,VWS V14.01,2013-02-14 21:28:00,
2013-02-14 14:33:00,21.4,10.8,30.22,SE,135,6.3,6.3,63,0.00,,OVC050,0.00,VWS V14.01,2013-02-14 21:33:00,
2013-02-14 14:38:00,22.5,11.8,30.22,SE,132,5.4,7.6,63,0.00,,OVC050,0.00,VWS V14.01,2013-02-14 21:38:00,
2013-02-14 14:43:00,21.0,10.4,30.22,ESE,105,4.0,7.6,63,0.00,,OVC050,0.00,VWS V14.01,2013-02-14 21:43:00,
2013-02-14 14:48:00,21.0,10.8,30.22,East,96,4.9,7.6,64,0.00,,OVC050,0.00,VWS V14.01,2013-02-14 21:48:00,
2013-02-14 14:53:00,20.8,11.3,30.22,ESE,108,4.0,7.6,66,0.00,,OVC050,0.00,VWS V14.01,2013-02-14 21:53:00,
2013-02-14 14:58:00,21.0,12.1,30.22,ESE,105,5.4,7.6,68,0.00,,OVC050,0.00,VWS V14.01,2013-02-14 21:58:00,
2013-02-14 15:03:00,20.7,11.8,30.22,SE,127,4.0,5.8,68,0.00,,OVC050,0.00,VWS V14.01,2013-02-14 22:03:00,
2013-02-14 15:08:00,20.7,12.1,30.22,ESE,121,3.1,6.7,69,0.00,,BKN032,0.00,VWS V14.01,2013-02-14 22:08:00,
2013-02-14 15:13:00,21.4,12.1,30.22,SSE,149,5.4,6.7,67,0.00,,BKN032,0.00,VWS V14.01,2013-02-14 22:13:00,
2013-02-14 15:18:00,21.0,12.5,30.22,ESE,123,4.5,6.7,69,0.00,,BKN032,0.00,VWS V14.01,2013-02-14 22:18:00,
2013-02-14 15:23:00,21.7,12.8,30.22,SSE,149,5.8,6.7,68,0.00,,BKN032,0.00,VWS V14.01,2013-02-14 22:23:00,
2013-02-14 15:28:00,21.2,13.0,30.22,SE,136,4.0,6.7,70,0.00,,BKN032,0.00,VWS V14.01,2013-02-14 22:28:00,
2013-02-14 15:33:00,20.5,12.6,30.22,ESE,105,4.9,4.9,71,0.00,,BKN032,0.00,VWS V14.01,2013-02-14 22:33:00,
2013-02-14 15:38:00,20.3,12.4,30.22,ESE,115,4.9,6.3,71,0.00,,BKN032,0.00,VWS V14.01,2013-02-14 22:38:00,
2013-02-14 15:43:00,20.7,13.1,30.22,SE,133,3.1,6.3,72,0.00,,BKN032,0.00,VWS V14.01,2013-02-14 22:43:00,
2013-02-14 15:48:00,20.1,13.2,30.22,East,91,4.9,6.3,74,0.00,,BKN032,0.00,VWS V14.01,2013-02-14 22:48:00,
2013-02-14 15:53:00,19.6,13.3,30.22,East,101,4.0,6.3,76,0.00,,BKN032,0.00,VWS V14.01,2013-02-14 22:53:00,
2013-02-14 15:58:00,19.8,14.3,30.22,ESE,104,2.7,6.3,79,0.00,,BKN032,0.00,VWS V14.01,2013-02-14 22:58:00,
2013-02-14 16:03:00,19.9,14.8,30.22,SE,126,4.0,5.4,80,0.00,,BKN032,0.00,VWS V14.01,2013-02-14 23:03:00,
2013-02-14 16:08:00,19.8,14.9,30.22,ESE,110,4.0,5.4,81,0.00,,BKN085,0.00,VWS V14.01,2013-02-14 23:08:00,
2013-02-14 16:13:00,19.6,14.7,30.22,SE,129,4.0,5.8,81,0.00,,BKN085,0.00,VWS V14.01,2013-02-14 23:13:00,
2013-02-14 16:18:00,19.6,15.0,30.22,ESE,121,4.9,5.8,82,0.00,,BKN085,0.00,VWS V14.01,2013-02-14 23:18:00,
2013-02-14 16:23:00,19.2,14.6,30.22,ESE,108,3.6,5.8,82,0.00,,BKN085,0.00,VWS V14.01,2013-02-14 23:23:00,
2013-02-14 16:28:00,19.4,15.4,30.22,ESE,123,3.1,5.8,84,0.00,,BKN085,0.00,VWS V14.01,2013-02-14 23:28:00,
2013-02-14 16:33:00,19.2,15.2,30.22,ESE,122,3.6,4.9,84,0.00,,BKN085,0.00,VWS V14.01,2013-02-14 23:33:00,
2013-02-14 16:38:00,19.4,15.6,30.22,SE,140,4.0,5.8,85,0.00,,BKN085,0.00,VWS V14.01,2013-02-14 23:38:00,
2013-02-14 16:43:00,19.2,15.5,30.22,SE,127,3.6,5.8,85,0.00,,BKN085,0.00,VWS V14.01,2013-02-14 23:43:00,
2013-02-14 16:48:00,19.4,15.6,30.22,SSE,148,4.0,5.8,85,0.00,,BKN085,0.00,VWS V14.01,2013-02-14 23:48:00,
2013-02-14 16:53:00,19.4,15.6,30.22,SSE,147,3.6,5.8,85,0.00,,BKN085,0.00,VWS V14.01,2013-02-14 23:53:00,
2013-02-14 16:58:00,19.6,15.5,30.22,SSE,152,3.1,5.8,84,0.00,,BKN085,0.00,VWS V14.01,2013-02-14 23:58:00,
2013-02-14 17:03:00,19.4,15.4,30.22,SSE,152,3.1,3.6,84,0.00,,BKN085,0.00,VWS V14.01,2013-02-15 00:03:00,
2013-02-14 17:08:00,19.2,15.2,30.22,SSE,150,2.2,3.6,84,0.00,,OVC085,0.00,VWS V14.01,2013-02-15 00:08:00,
2013-02-14 17:13:00,19.2,15.2,30.22,SSE,150,2.2,3.6,84,0.00,,OVC085,0.00,VWS V14.01,2013-02-15 00:13:00,
2013-02-14 17:18:00,19.2,15.2,30.22,SSE,151,0.0,3.6,84,0.00,,OVC085,0.00,VWS V14.01,2013-02-15 00:18:00,
2013-02-14 17:23:00,19.2,15.2,30.22,SSE,150,2.2,3.6,84,0.00,,OVC085,0.00,VWS V14.01,2013-02-15 00:23:00,
2013-02-14 17:28:00,19.2,15.2,30.22,SSE,151,2.7,3.6,84,0.00,,OVC085,0.00,VWS V14.01,2013-02-15 00:28:00,
2013-02-14 17:33:00,19.2,15.5,30.22,SSE,151,0.0,2.2,85,0.00,,OVC085,0.00,VWS V14.01,2013-02-15 00:33:00,
2013-02-14 17:38:00,19.0,15.3,30.22,SSE,151,2.7,3.1,85,0.00,,OVC085,0.00,VWS V14.01,2013-02-15 00:38:00,
2013-02-14 17:43:00,19.0,15.3,30.22,SSE,157,3.1,3.6,85,0.00,,OVC085,0.00,VWS V14.01,2013-02-15 00:43:00,
2013-02-14 17:48:00,19.0,15.3,30.22,SSE,160,3.1,3.6,85,0.00,,OVC085,0.00,VWS V14.01,2013-02-15 00:48:00,
2013-02-14 17:53:00,19.0,15.6,30.22,SSE,166,2.7,3.6,86,0.00,,OVC085,0.00,VWS V14.01,2013-02-15 00:53:00,
2013-02-14 17:58:00,19.0,15.6,30.22,SSE,166,2.7,3.6,86,0.00,,OVC085,0.00,VWS V14.01,2013-02-15 00:58:00,
2013-02-14 18:03:00,19.0,15.6,30.22,SSE,166,2.2,2.7,86,0.00,,OVC085,0.00,VWS V14.01,2013-02-15 01:03:00,
2013-02-14 18:08:00,19.0,15.6,30.22,SSE,166,3.1,3.6,86,0.00,,OVC024,0.00,VWS V14.01,2013-02-15 01:08:00,
2013-02-14 18:13:00,19.0,15.6,30.22,South,182,4.0,4.0,86,0.00,,OVC024,0.00,VWS V14.01,2013-02-15 01:13:00,
2013-02-14 18:18:00,19.0,15.8,30.22,South,183,3.1,4.0,87,0.00,,OVC024,0.00,VWS V14.01,2013-02-15 01:18:00,
2013-02-14 18:23:00,19.0,15.8,30.22,SSW,195,4.0,4.0,87,0.00,,OVC024,0.00,VWS V14.01,2013-02-15 01:23:00,
2013-02-14 18:28:00,19.2,16.0,30.22,SSW,204,3.6,4.0,87,0.00,,OVC024,0.00,VWS V14.01,2013-02-15 01:28:00,
2013-02-14 18:33:00,19.2,16.0,30.19,SSW,205,2.2,3.1,87,0.00,,OVC024,0.00,VWS V14.01,2013-02-15 01:33:00,
2013-02-14 18:38:00,19.4,16.4,30.19,SSW,205,2.7,3.1,88,0.00,,OVC024,0.00,VWS V14.01,2013-02-15 01:38:00,
2013-02-14 18:43:00,19.4,16.4,30.19,SSW,205,2.7,3.1,88,0.00,,OVC024,0.00,VWS V14.01,2013-02-15 01:43:00,
2013-02-14 18:48:00,19.4,16.4,30.19,SSW,205,3.1,3.1,88,0.00,,OVC024,0.00,VWS V14.01,2013-02-15 01:48:00,
2013-02-14 18:53:00,19.6,16.6,30.19,SSW,205,3.1,3.6,88,0.00,,OVC024,0.00,VWS V14.01,2013-02-15 01:53:00,
2013-02-14 18:58:00,19.6,16.6,30.19,SSW,204,2.2,3.6,88,0.00,,OVC024,0.00,VWS V14.01,2013-02-15 01:58:00,
2013-02-14 19:03:00,19.8,16.8,30.19,SE,142,4.0,4.0,88,0.00,,OVC024,0.00,VWS V14.01,2013-02-15 02:03:00,
2013-02-14 19:08:00,19.8,16.8,30.19,SSE,154,4.5,5.4,88,0.00,,OVC022,0.00,VWS V14.01,2013-02-15 02:08:00,
2013-02-14 19:13:00,19.9,17.0,30.19,SE,142,3.1,5.4,88,0.00,,OVC022,0.00,VWS V14.01,2013-02-15 02:13:00,
2013-02-14 19:18:00,20.1,17.4,30.19,SSE,151,2.7,5.4,89,0.00,,OVC022,0.00,VWS V14.01,2013-02-15 02:18:00,
2013-02-14 19:23:00,20.1,17.4,30.19,SSE,151,2.2,5.4,89,0.00,,OVC022,0.00,VWS V14.01,2013-02-15 02:23:00,
2013-02-14 19:28:00,20.1,17.4,30.19,SSE,148,3.1,5.4,89,0.00,,OVC022,0.00,VWS V14.01,2013-02-15 02:28:00,
2013-02-14 19:33:00,20.1,17.4,30.19,SE,144,2.7,3.1,89,0.00,,OVC022,0.00,VWS V14.01,2013-02-15 02:33:00,
2013-02-14 19:38:00,19.9,17.2,30.19,SE,144,2.2,4.0,89,0.00,,OVC022,0.00,VWS V14.01,2013-02-15 02:38:00,
2013-02-14 19:43:00,19.9,17.2,30.19,SE,142,2.2,4.0,89,0.00,,OVC022,0.00,VWS V14.01,2013-02-15 02:43:00,
2013-02-14 19:48:00,20.1,17.4,30.19,SE,142,4.9,4.9,89,0.00,,OVC022,0.00,VWS V14.01,2013-02-15 02:48:00,
2013-02-14 19:53:00,19.8,17.0,30.19,SE,143,3.1,5.4,89,0.00,,OVC022,0.00,VWS V14.01,2013-02-15 02:53:00,
2013-02-14 19:58:00,19.4,16.7,30.19,SE,124,2.7,5.4,89,0.00,,OVC022,0.00,VWS V14.01,2013-02-15 02:58:00,
2013-02-14 20:03:00,19.2,16.5,30.19,SE,124,0.0,0.0,89,0.00,,OVC022,0.00,VWS V14.01,2013-02-15 03:03:00,
2013-02-14 20:08:00,19.0,16.3,30.19,SE,124,0.0,2.2,89,0.00,,OVC047,0.00,VWS V14.01,2013-02-15 03:08:00,
2013-02-14 20:13:00,18.7,16.0,30.19,South,174,3.1,3.1,89,0.00,,OVC047,0.00,VWS V14.01,2013-02-15 03:13:00,
2013-02-14 20:18:00,18.7,16.0,30.19,South,173,4.0,4.0,89,0.00,,OVC047,0.00,VWS V14.01,2013-02-15 03:18:00,
2013-02-14 20:23:00,18.9,16.4,30.19,SW,218,2.7,4.0,90,0.00,,OVC047,0.00,VWS V14.01,2013-02-15 03:23:00,
2013-02-14 20:28:00,19.0,16.6,30.19,SSE,155,4.0,4.0,90,0.00,,OVC047,0.00,VWS V14.01,2013-02-15 03:28:00,
2013-02-14 20:33:00,19.2,16.8,30.19,ESE,112,2.7,2.7,90,0.00,,OVC047,0.00,VWS V14.01,2013-02-15 03:33:00,
2013-02-14 20:38:00,19.0,16.6,30.19,ESE,118,0.0,2.7,90,0.00,,OVC047,0.00,VWS V14.01,2013-02-15 03:38:00,
2013-02-14 20:43:00,19.0,16.6,30.19,ESE,118,2.2,2.7,90,0.00,,OVC047,0.00,VWS V14.01,2013-02-15 03:43:00,
2013-02-14 20:48:00,18.9,16.7,30.19,SE,140,2.2,3.6,91,0.00,,OVC047,0.00,VWS V14.01,2013-02-15 03:48:00,
2013-02-14 20:53:00,18.9,16.7,30.19,SW,231,4.0,4.5,91,0.00,,OVC047,0.00,VWS V14.01,2013-02-15 03:53:00,
2013-02-14 20:58:00,19.0,16.9,30.19,SSW,213,0.0,4.5,91,0.00,,OVC047,0.00,VWS V14.01,2013-02-15 03:58:00,
2013-02-14 21:03:00,19.2,17.0,30.19,SSW,206,3.6,3.6,91,0.00,,OVC047,0.00,VWS V14.01,2013-02-15 04:03:00,
2013-02-14 21:08:00,19.6,17.4,30.19,West,262,3.1,4.0,91,0.00,,OVC042,0.00,VWS V14.01,2013-02-15 04:08:00,
2013-02-14 21:13:00,19.9,17.5,30.19,West,280,0.0,4.0,90,0.00,,OVC042,0.00,VWS V14.01,2013-02-15 04:13:00,
2013-02-14 21:18:00,21.2,18.2,30.19,North,353,2.2,5.8,88,0.00,,OVC042,0.00,VWS V14.01,2013-02-15 04:18:00,
2013-02-14 21:23:00,21.4,17.9,30.19,North,0,0.0,5.8,86,0.00,,OVC042,0.00,VWS V14.01,2013-02-15 04:23:00,
2013-02-14 21:28:00,21.6,17.5,30.19,North,357,0.0,5.8,84,0.00,,OVC042,0.00,VWS V14.01,2013-02-15 04:28:00,
2013-02-14 21:33:00,21.9,17.3,30.19,North,0,2.2,2.7,82,0.00,,OVC042,0.00,VWS V14.01,2013-02-15 04:33:00,
2013-02-14 21:38:00,22.3,17.1,30.19,NNW,336,2.7,5.4,80,0.00,,OVC042,0.00,VWS V14.01,2013-02-15 04:38:00,
2013-02-14 21:43:00,23.7,16.0,30.19,NW,323,8.3,8.7,72,0.00,,OVC042,0.00,VWS V14.01,2013-02-15 04:43:00,
2013-02-14 21:48:00,23.5,15.5,30.19,NNW,333,4.0,8.7,71,0.00,,OVC042,0.00,VWS V14.01,2013-02-15 04:48:00,
2013-02-14 21:53:00,23.4,15.4,30.19,NW,318,2.2,8.7,71,0.00,,OVC042,0.00,VWS V14.01,2013-02-15 04:53:00,
2013-02-14 21:58:00,23.2,15.2,30.19,NW,318,0.0,8.7,71,0.00,,OVC042,0.00,VWS V14.01,2013-02-15 04:58:00,
2013-02-14 22:00:00,23.2,15.2,30.19,NW,319,2.2,8.7,71,0.00,,OVC042,0.00,VWS V14.01,2013-02-15 05:00:00,
2013-02-14 22:05:00,22.8,15.5,30.19,North,0,2.7,4.9,73,0.00,,OVC038,0.00,VWS V14.01,2013-02-15 05:05:00,
2013-02-14 22:10:00,22.5,15.8,30.19,North,350,2.2,4.9,75,0.00,,OVC038,0.00,VWS V14.01,2013-02-15 05:10:00,
2013-02-14 22:15:00,21.9,15.8,30.19,North,0,2.7,4.9,77,0.00,,OVC038,0.00,VWS V14.01,2013-02-15 05:15:00,
2013-02-14 22:20:00,22.1,16.3,30.19,North,353,2.7,4.9,78,0.00,,OVC038,0.00,VWS V14.01,2013-02-15 05:20:00,
2013-02-14 22:25:00,22.1,16.3,30.19,North,5,3.1,4.9,78,0.00,,OVC038,0.00,VWS V14.01,2013-02-15 05:25:00,
2013-02-14 22:30:00,22.1,16.3,30.22,North,3,3.6,6.3,78,0.00,,OVC038,0.00,VWS V14.01,2013-02-15 05:30:00,
2013-02-14 22:35:00,22.3,16.5,30.22,North,8,4.0,5.4,78,0.00,,OVC038,0.00,VWS V14.01,2013-02-15 05:35:00,
2013-02-14 22:40:00,22.1,16.3,30.22,North,7,3.1,5.4,78,0.00,,OVC038,0.00,VWS V14.01,2013-02-15 05:40:00,
2013-02-14 22:45:00,22.1,16.3,30.22,North,6,4.0,5.4,78,0.00,,OVC038,0.00,VWS V14.01,2013-02-15 05:45:00,
2013-02-14 22:50:00,22.1,16.6,30.22,NNW,348,2.7,5.4,79,0.00,,OVC038,0.00,VWS V14.01,2013-02-15 05:50:00,
2013-02-14 22:55:00,21.9,16.4,30.22,NNW,344,4.0,5.4,79,0.00,,OVC038,0.00,VWS V14.01,2013-02-15 05:55:00,
2013-02-14 23:00:00,21.7,16.2,30.22,NNW,342,4.0,5.4,79,0.00,,OVC038,0.00,VWS V14.01,2013-02-15 06:00:00,
2013-02-14 23:05:00,21.4,16.2,30.22,NNW,335,3.1,6.3,80,0.00,,BKN060,0.00,VWS V14.01,2013-02-15 06:05:00,
2013-02-14 23:10:00,21.4,16.5,30.22,NNW,327,4.5,6.3,81,0.00,,BKN060,0.00,VWS V14.01,2013-02-15 06:10:00,
2013-02-14 23:15:00,21.6,16.6,30.22,NW,326,4.9,6.3,81,0.00,,BKN060,0.00,VWS V14.01,2013-02-15 06:15:00,
2013-02-14 23:20:00,21.2,16.3,30.22,NNW,337,4.9,6.3,81,0.00,,BKN060,0.00,VWS V14.01,2013-02-15 06:20:00,
2013-02-14 23:25:00,21.6,16.4,30.22,NNW,341,3.6,6.3,80,0.00,,BKN060,0.00,VWS V14.01,2013-02-15 06:25:00,
2013-02-14 23:30:00,21.7,16.5,30.22,NNW,327,6.3,7.6,80,0.00,,BKN060,0.00,VWS V14.01,2013-02-15 06:30:00,
2013-02-14 23:35:00,21.6,16.1,30.22,NNW,331,4.9,6.7,79,0.00,,BKN060,0.00,VWS V14.01,2013-02-15 06:35:00,
2013-02-14 23:40:00,21.7,16.2,30.22,NNW,334,5.8,6.7,79,0.00,,BKN060,0.00,VWS V14.01,2013-02-15 06:40:00,
2013-02-14 23:45:00,21.6,16.1,30.22,NNW,334,5.8,6.7,79,0.00,,BKN060,0.00,VWS V14.01,2013-02-15 06:45:00,
2013-02-14 23:50:00,21.4,15.9,30.22,NNW,333,5.4,6.7,79,0.00,,BKN060,0.00,VWS V14.01,2013-02-15 06:50:00,
2013-02-14 23:55:00,21.4,16.2,30.22,North,353,5.8,6.7,80,0.00,,BKN060,0.00,VWS V14.01,2013-02-15 06:55:00,